Theta_e
338 340 340 342 343 345 347 348 350 351 350 349 347 348 346 346 346 346 343 344 344 343
339 338 339 343 344 345 346 350 350 353 350 349 349 348 347 346 345 346 345 345 343 342
343 342 339 340 344 345 345 346 348 352 349 348 349 348 347 345 345 345 345 346 344 343
341 342 342 340 341 343 346 345 346 350 350 346 348 349 347 345 345 345 344 343 343 342
340 341 342 342 341 341 342 344 347 347 350 349 349 349 347 346 348 344 344 345 343 343
339 339 339 342 343 340 341 343 346 349 350 349 350 349 348 347 346 345 346 346 345 344
340 339 339 340 342 343 340 342 344 349 350 351 351 351 351 349 347 345 346 347 347 347
343 341 339 339 340 341 343 342 343 345 349 350 351 352 351 351 350 349 347 347 348 348
344 344 341 338 338 340 341 342 340 342 345 348 352 341 339 347 349 348 348 347 347 348
343 343 345 343 338 337 339 340 340 342 345 345 348 335 335 339 349 348 348 347 347 347
346 343 345 347 344 340 339 339 338 339 342 346 347 334 331 336 348 348 348 348 349 348
348 347 346 346 346 346 343 341 340 339 339 341 344 331 330 332 345 347 348 347 347 349
344 349 350 349 347 349 348 346 346 343 341 338 345 328 326 331 349 347 348 349 348 333
337 341 343 348 351 350 349 349 348 346 345 343 344 347 323 323 347 347 347 347 347 348
Wind_Speed
8 6 5 6 4 4 5 5 5 6 5 5 5 5 5 3 3 4 4 4 2 2
9 7 7 7 5 4 5 5 5 6 6 6 6 6 5 3 5 4 3 4 3 2
12 10 7 6 7 6 6 4 6 6 6 6 6 6 5 3 3 4 4 3 4 3
11 9 8 8 7 7 6 6 6 7 7 7 7 6 5 5 5 6 5 4 5 6
13 11 10 9 9 7 8 6 7 7 7 7 7 6 7 7 5 6 6 6 5 6
13 12 14 11 9 8 7 7 6 6 8 8 9 8 7 7 7 6 7 7 6 7
15 15 14 13 10 11 10 9 8 7 8 8 9 10 9 8 7 7 7 7 7 7
15 14 14 13 13 10 10 11 9 9 7 7 8 8 9 8 9 9 9 8 7 7
13 14 14 13 13 13 11 11 8 10 12 9 8 12 14 11 9 9 9 9 8 8
10 9 12 12 11 13 14 11 13 12 11 12 12 13 15 17 11 10 10 10 8 7
13 13 12 13 14 14 12 14 13 13 13 13 13 15 17 17 14 10 12 11 10 10
12 14 14 14 15 13 12 12 13 13 13 15 14 18 18 14 11 12 13 10 10 11
3 9 12 14 14 11 11 14 11 13 14 15 16 15 19 17 10 13 11 12 11 14
5 6 6 10 13 13 13 11 12 13 13 14 14 15 19 20 14 12 11 11 11 10
Wind_Direction
179 183 185 189 191 201 199 214 182 200 202 206 205 206 185 185 201 190 200 192 205 226
174 174 187 184 189 204 208 217 185 197 202 207 195 203 196 205 212 209 212 208 211 243
187 178 174 173 189 200 218 214 181 191 201 204 199 194 192 208 245 227 244 236 212 229
189 177 165 180 190 199 200 200 206 196 200 203 200 192 193 213 217 227 240 249 235 241
198 183 180 188 192 182 203 194 210 197 196 205 208 193 197 210 207 215 228 238 239 250
200 198 197 199 187 178 193 207 202 198 201 206 210 196 201 206 211 219 226 229 226 240
198 204 207 205 193 188 188 195 201 201 206 205 211 208 203 205 212 221 233 234 232 242
203 202 205 204 207 189 191 204 193 197 204 209 204 211 204 204 215 223 231 232 232 235
204 201 207 210 203 208 201 199 185 197 206 202 217 211 201 205 217 217 224 234 234 231
201 204 209 208 204 209 212 208 208 206 202 213 215 207 207 206 220 225 229 230 235 238
196 200 205 205 207 210 209 213 211 216 212 210 217 205 204 205 221 224 231 229 226 233
205 202 204 207 208 211 212 215 216 218 218 222 224 200 199 192 215 228 235 230 230 227
279 190 205 212 211 209 208 219 215 218 218 218 227 205 201 195 210 225 233 241 236 222
273 260 256 226 212 203 210 212 217 220 218 221 216 221 202 198 211 222 230 234 240 234